| time (UTC) | temp C | wind direction | speed KPH | gust KPH | rain 1hr cm | rain 24hr cm | rain mn cm | humidity % | barometer mb |
| 20260506145901 | 12 | 0 | 3.2 | 8.0 | 0.00 | 0.00 | 0.00 | 83 | 1014.7 |
| 20260506145357 | 12 | 356 | 0.0 | 14.5 | 0.00 | 0.00 | 0.00 | 83 | 1014.6 |
| 20260506144855 | 12 | 357 | 1.6 | 12.9 | 0.00 | 0.00 | 0.00 | 83 | 1014.5 |
| 20260506144351 | 12 | 281 | 4.8 | 12.9 | 0.00 | 0.00 | 0.00 | 84 | 1014.6 |
| 20260506143850 | 12 | 53 | 3.2 | 14.5 | 0.00 | 0.00 | 0.00 | 84 | 1014.3 |
| 20260506143347 | 12 | 310 | 1.6 | 11.3 | 0.00 | 0.00 | 0.00 | 85 | 1014.0 |
| 20260506142845 | 12 | 65 | 3.2 | 16.1 | 0.00 | 0.00 | 0.00 | 85 | 1014.0 |
| 20260506142342 | 12 | 350 | 3.2 | 6.4 | 0.00 | 0.00 | 0.00 | 85 | 1013.9 |
| 20260506141841 | 12 | 197 | 3.2 | 8.0 | 0.00 | 0.00 | 0.00 | 86 | 1013.7 |
| 20260506141338 | 11 | 269 | 3.2 | 6.4 | 0.00 | 0.00 | 0.00 | 86 | 1014.0 |
| 20260506140836 | 11 | 58 | 3.2 | 9.7 | 0.00 | 0.00 | 0.00 | 86 | 1014.0 |
| 20260506140333 | 11 | 292 | 3.2 | 11.3 | 0.00 | 0.00 | 0.00 | 87 | 1013.8 |
| 20260506135830 | 11 | 288 | 11.3 | 11.3 | 0.00 | 0.00 | 0.00 | 88 | 1013.7 |
| 20260506135326 | 11 | 306 | 4.8 | 11.3 | 0.00 | 0.00 | 0.00 | 88 | 1013.7 |
| 20260506134823 | 11 | 41 | 3.2 | 9.7 | 0.00 | 0.00 | 0.00 | 90 | 1013.8 |
| 20260506134319 | 11 | 15 | 4.8 | 9.7 | 0.00 | 0.00 | 0.00 | 90 | 1013.6 |
| 20260506133817 | 11 | 9 | 3.2 | 12.9 | 0.00 | 0.00 | 0.00 | 91 | 1013.5 |
| 20260506133313 | 11 | 29 | 6.4 | 6.4 | 0.00 | 0.00 | 0.00 | 91 | 1013.6 |
| 20260506132810 | 11 | 52 | 3.2 | 6.4 | 0.00 | 0.00 | 0.00 | 91 | 1013.7 |
| 20260506132307 | 11 | 318 | 9.7 | 11.3 | 0.00 | 0.00 | 0.00 | 91 | 1013.7 |
| 20260506131805 | 11 | 300 | 6.4 | 9.7 | 0.00 | 0.00 | 0.00 | 91 | 1013.6 |
| 20260506131301 | 11 | 352 | 6.4 | 6.4 | 0.00 | 0.00 | 0.00 | 90 | 1013.6 |
| 20260506130758 | 11 | 304 | 3.2 | 9.7 | 0.00 | 0.00 | 0.00 | 90 | 1013.4 |
| 20260506130254 | 11 | 85 | 3.2 | 11.3 | 0.00 | 0.00 | 0.00 | 90 | 1013.5 |
| 20260506125753 | 11 | 346 | 9.7 | 17.7 | 0.00 | 0.00 | 0.00 | 89 | 1013.6 |
| 20260506125250 | 11 | 291 | 11.3 | 14.5 | 0.00 | 0.00 | 0.00 | 89 | 1013.4 |
| 20260506124749 | 11 | 308 | 0.0 | 17.7 | 0.00 | 0.00 | 0.00 | 89 | 1013.1 |
| 20260506124246 | 11 | 120 | 1.6 | 4.8 | 0.00 | 0.00 | 0.00 | 89 | 1013.1 |
| 20260506123743 | 11 | 306 | 3.2 | 4.8 | 0.00 | 0.00 | 0.00 | 88 | 1013.1 |
| 20260506123242 | 11 | 15 | 3.2 | 8.0 | 0.00 | 0.00 | 0.00 | 87 | 1013.0 |
| 20260506122738 | 11 | 58 | 8.0 | 16.1 | 0.00 | 0.00 | 0.00 | 86 | 1013.2 |
| 20260506122235 | 11 | 21 | 6.4 | 9.7 | 0.00 | 0.00 | 0.00 | 85 | 1013.1 |
| 20260506121733 | 11 | 345 | 1.6 | 12.9 | 0.00 | 0.00 | 0.00 | 84 | 1012.9 |
| 20260506121230 | 11 | 315 | 6.4 | 19.3 | 0.00 | 0.00 | 0.00 | 83 | 1012.8 |
| 20260506120727 | 12 | 321 | 3.2 | 19.3 | 0.00 | 0.00 | 0.00 | 82 | 1012.7 |
| 20260506120225 | 12 | 289 | 12.9 | 12.9 | 0.00 | 0.00 | 0.00 | 82 | 1012.6 |
| 20260506115723 | 12 | 262 | 3.2 | 14.5 | 0.00 | 0.00 | 0.00 | 81 | 1012.4 |
| 20260506115221 | 12 | 317 | 3.2 | 11.3 | 0.00 | 0.00 | 0.00 | 81 | 1012.6 |
| 20260506114718 | 12 | 343 | 3.2 | 14.5 | 0.00 | 0.00 | 0.00 | 81 | 1012.5 |
| 20260506114215 | 12 | 54 | 6.4 | 11.3 | 0.00 | 0.00 | 0.00 | 80 | 1012.2 |
| 20260506113714 | 12 | 287 | 4.8 | 19.3 | 0.00 | 0.00 | 0.00 | 80 | 1012.0 |
| 20260506113211 | 12 | 55 | 6.4 | 14.5 | 0.00 | 0.00 | 0.00 | 80 | 1012.2 |
| 20260506112707 | 12 | 8 | 6.4 | 6.4 | 0.00 | 0.00 | 0.00 | 80 | 1012.1 |
| 20260506112205 | 12 | 73 | 3.2 | 14.5 | 0.00 | 0.00 | 0.00 | 79 | 1012.0 |
| 20260506111702 | 12 | 337 | 3.2 | 6.4 | 0.00 | 0.00 | 0.00 | 79 | 1011.8 |
| 20260506111200 | 12 | 266 | 8.0 | 14.5 | 0.00 | 0.00 | 0.00 | 79 | 1011.9 |
| 20260506110657 | 12 | 351 | 3.2 | 8.0 | 0.00 | 0.00 | 0.00 | 79 | 1011.6 |
| 20260506110155 | 12 | 325 | 3.2 | 8.0 | 0.00 | 0.00 | 0.00 | 79 | 1011.4 |
| 20260506105651 | 12 | 313 | 6.4 | 9.7 | 0.00 | 0.00 | 0.00 | 79 | 1011.3 |
| 20260506105148 | 12 | 343 | 6.4 | 8.0 | 0.00 | 0.00 | 0.00 | 78 | 1011.3 |
| 20260506104646 | 12 | 328 | 4.8 | 8.0 | 0.00 | 0.00 | 0.00 | 78 | 1011.3 |
| 20260506104143 | 12 | 307 | 6.4 | 9.7 | 0.00 | 0.00 | 0.00 | 78 | 1011.4 |
| 20260506103640 | 12 | 321 | 3.2 | 8.0 | 0.00 | 0.00 | 0.00 | 79 | 1011.1 |
| 20260506103137 | 12 | 28 | 3.2 | 9.7 | 0.00 | 0.00 | 0.00 | 79 | 1011.0 |
| 20260506102635 | 12 | 12 | 3.2 | 9.7 | 0.00 | 0.00 | 0.00 | 78 | 1011.1 |
| 20260506102132 | 12 | 280 | 8.0 | 8.0 | 0.00 | 0.00 | 0.00 | 78 | 1010.8 |
| 20260506101629 | 13 | 327 | 4.8 | 9.7 | 0.00 | 0.00 | 0.00 | 78 | 1010.8 |
| 20260506101126 | 13 | 72 | 3.2 | 9.7 | 0.00 | 0.00 | 0.00 | 77 | 1011.0 |
| 20260506100625 | 13 | 283 | 9.7 | 11.3 | 0.00 | 0.00 | 0.00 | 77 | 1010.9 |
| 20260506100122 | 13 | 323 | 4.8 | 11.3 | 0.00 | 0.00 | 0.00 | 77 | 1011.0 |
| 20260506095621 | 13 | 301 | 3.2 | 16.1 | 0.00 | 0.00 | 0.00 | 76 | 1010.8 |
| 20260506095117 | 13 | 45 | 4.8 | 8.0 | 0.00 | 0.00 | 0.00 | 76 | 1010.8 |
| 20260506094614 | 13 | 314 | 6.4 | 12.9 | 0.00 | 0.00 | 0.00 | 76 | 1010.8 |
| 20260506094112 | 13 | 67 | 6.4 | 12.9 | 0.00 | 0.00 | 0.00 | 76 | 1010.6 |
| 20260506093610 | 13 | 9 | 4.8 | 9.7 | 0.00 | 0.00 | 0.00 | 76 | 1010.7 |
| 20260506093107 | 13 | 83 | 4.8 | 8.0 | 0.00 | 0.00 | 0.00 | 76 | 1010.6 |
| 20260506092605 | 13 | 267 | 3.2 | 8.0 | 0.00 | 0.00 | 0.00 | 77 | 1010.5 |
| 20260506092102 | 13 | 6 | 0.0 | 6.4 | 0.00 | 0.00 | 0.00 | 77 | 1010.5 |
| 20260506091600 | 13 | 10 | 3.2 | 11.3 | 0.00 | 0.00 | 0.00 | 77 | 1010.3 |
| 20260506091057 | 13 | 77 | 3.2 | 6.4 | 0.00 | 0.00 | 0.00 | 77 | 1010.2 |
| 20260506090555 | 13 | 336 | 3.2 | 8.0 | 0.00 | 0.00 | 0.00 | 77 | 1010.1 |
| 20260506090051 | 13 | 76 | 1.6 | 6.4 | 0.00 | 0.00 | 0.00 | 77 | 1010.2 |
| 20260506085548 | 13 | 70 | 4.8 | 9.7 | 0.00 | 0.00 | 0.00 | 77 | 1010.0 |
| 20260506085044 | 13 | 76 | 6.4 | 9.7 | 0.00 | 0.00 | 0.00 | 77 | 1010.2 |
| 20260506084541 | 13 | 47 | 3.2 | 4.8 | 0.00 | 0.00 | 0.00 | 77 | 1010.1 |
| 20260506084037 | 13 | 16 | 3.2 | 6.4 | 0.00 | 0.00 | 0.00 | 77 | 1010.2 |
| 20260506083535 | 13 | 13 | 1.6 | 6.4 | 0.00 | 0.00 | 0.00 | 77 | 1010.2 |
| 20260506083032 | 13 | 348 | 3.2 | 6.4 | 0.00 | 0.00 | 0.00 | 77 | 1010.1 |
| 20260506082529 | 13 | 58 | 1.6 | 4.8 | 0.00 | 0.00 | 0.00 | 77 | 1010.0 |
| 20260506082024 | 13 | 282 | 3.2 | 6.4 | 0.00 | 0.00 | 0.00 | 77 | 1010.0 |
| 20260506081523 | 13 | 320 | 1.6 | 6.4 | 0.00 | 0.00 | 0.00 | 77 | 1010.0 |
| 20260506081020 | 13 | 291 | 4.8 | 9.7 | 0.00 | 0.00 | 0.00 | 77 | 1010.1 |
| 20260506080517 | 13 | 61 | 3.2 | 8.0 | 0.00 | 0.00 | 0.00 | 77 | 1010.3 |
| 20260506073501 | 13 | 56 | 0.0 | 3.2 | 0.00 | 0.00 | 0.00 | 78 | 1010.1 |
| 20260506072958 | 13 | 323 | 4.8 | 6.4 | 0.00 | 0.00 | 0.00 | 78 | 1010.4 |
| 20260506072455 | 14 | 332 | 4.8 | 9.7 | 0.00 | 0.00 | 0.00 | 77 | 1010.0 |
| 20260506071953 | 14 | 32 | 3.2 | 9.7 | 0.00 | 0.00 | 0.00 | 77 | 1010.3 |
| 20260506071451 | 14 | 78 | 3.2 | 6.4 | 0.00 | 0.00 | 0.00 | 77 | 1010.2 |
| 20260506070947 | 14 | 51 | 4.8 | 8.0 | 0.00 | 0.00 | 0.00 | 77 | 1010.1 |
| 20260506070444 | 14 | 42 | 4.8 | 12.9 | 0.00 | 0.00 | 0.00 | 77 | 1010.2 |
| 20260506062422 | 15 | 353 | 4.8 | 9.7 | 0.00 | 0.00 | 0.00 | 78 | 1010.0 |
| 20260506061918 | 15 | 349 | 1.6 | 8.0 | 0.00 | 0.00 | 0.00 | 78 | 1010.1 |
| 20260506061414 | 15 | 331 | 4.8 | 9.7 | 0.00 | 0.00 | 0.00 | 78 | 1009.8 |
| 20260506060912 | 15 | 303 | 4.8 | 12.9 | 0.00 | 0.00 | 0.00 | 77 | 1010.1 |
| 20260506060410 | 15 | 43 | 3.2 | 9.7 | 0.00 | 0.00 | 0.00 | 77 | 1009.7 |
| 20260506051342 | 15 | 309 | 3.2 | 9.7 | 0.00 | 0.00 | 0.00 | 79 | 1009.5 |
| 20260506050839 | 15 | 14 | 3.2 | 8.0 | 0.00 | 0.00 | 0.00 | 78 | 1009.5 |
| 20260506050337 | 15 | 313 | 9.7 | 20.9 | 0.00 | 0.00 | 0.00 | 78 | 1009.8 |
| 20260506044827 | 16 | 322 | 4.8 | 8.0 | 0.00 | 0.00 | 0.00 | 78 | 1009.6 |
| 20260506044325 | 16 | 42 | 8.0 | 16.1 | 0.00 | 0.00 | 0.00 | 78 | 1009.2 |
| 20260506043822 | 16 | 335 | 3.2 | 6.4 | 0.00 | 0.00 | 0.00 | 78 | 1009.1 |
| 20260506043319 | 16 | 45 | 1.6 | 12.9 | 0.00 | 0.00 | 0.00 | 78 | 1009.2 |
| 20260506042818 | 16 | 348 | 8.0 | 14.5 | 0.00 | 0.00 | 0.00 | 78 | 1009.3 |
| 20260506042317 | 16 | 289 | 4.8 | 17.7 | 0.00 | 0.00 | 0.00 | 78 | 1009.3 |
| 20260506041815 | 16 | 307 | 8.0 | 12.9 | 0.00 | 0.00 | 0.00 | 77 | 1009.2 |
| 20260506041311 | 17 | 307 | 6.4 | 17.7 | 0.00 | 0.00 | 0.00 | 77 | 1009.1 |
| 20260506040809 | 17 | 309 | 14.5 | 19.3 | 0.00 | 0.00 | 0.00 | 76 | 1008.8 |
| 20260506040306 | 17 | 303 | 4.8 | 17.7 | 0.00 | 0.00 | 0.00 | 76 | 1009.0 |
| 20260506035802 | 17 | 290 | 9.7 | 16.1 | 0.00 | 0.00 | 0.00 | 76 | 1009.2 |
| 20260506035259 | 18 | 333 | 6.4 | 9.7 | 0.00 | 0.00 | 0.00 | 76 | 1008.9 |
| 20260506034756 | 18 | 343 | 6.4 | 14.5 | 0.00 | 0.00 | 0.00 | 76 | 1008.8 |
| 20260506034253 | 18 | 256 | 8.0 | 9.7 | 0.00 | 0.00 | 0.00 | 76 | 1008.5 |
| 20260506033750 | 18 | 356 | 1.6 | 12.9 | 0.00 | 0.00 | 0.00 | 75 | 1008.7 |
| 20260506033247 | 19 | 318 | 4.8 | 9.7 | 0.00 | 0.00 | 0.00 | 75 | 1008.8 |
| 20260506032744 | 20 | 60 | 6.4 | 14.5 | 0.00 | 0.00 | 0.00 | 76 | 1008.4 |
| 20260506032241 | 20 | 325 | 4.8 | 20.9 | 0.00 | 0.00 | 0.00 | 75 | 1008.7 |
| 20260506031738 | 20 | 337 | 4.8 | 11.3 | 0.00 | 0.00 | 0.00 | 75 | 1008.2 |
| 20260506031235 | 20 | 358 | 11.3 | 29.0 | 0.00 | 0.00 | 0.00 | 74 | 1008.3 |
| 20260506030733 | 21 | 352 | 11.3 | 22.5 | 0.00 | 0.00 | 0.00 | 73 | 1008.2 |
| 20260506030231 | 21 | 306 | 9.7 | 11.3 | 0.00 | 0.00 | 0.00 | 74 | 1007.9 |
| 20260506025727 | 22 | 307 | 17.7 | 17.7 | 0.00 | 0.00 | 0.00 | 73 | 1007.7 |
| 20260506025224 | 22 | 333 | 6.4 | 12.9 | 0.00 | 0.00 | 0.00 | 74 | 1007.2 |
| 20260506024721 | 23 | 328 | 8.0 | 9.7 | 0.00 | 0.00 | 0.00 | 73 | 1007.4 |
| 20260506024217 | 23 | 306 | 4.8 | 9.7 | 0.00 | 0.00 | 0.00 | 72 | 1007.4 |
| 20260506023713 | 23 | 320 | 6.4 | 14.5 | 0.00 | 0.00 | 0.00 | 72 | 1006.8 |
| 20260506023211 | 23 | 291 | 9.7 | 9.7 | 0.00 | 0.00 | 0.00 | 71 | 1006.9 |
| 20260506022708 | 24 | 342 | 0.0 | 4.8 | 0.00 | 0.00 | 0.00 | 73 | 1006.8 |
| 20260506022205 | 24 | 263 | 4.8 | 8.0 | 0.00 | 0.00 | 0.00 | 75 | 1006.9 |
| 20260506021703 | 25 | 262 | 4.8 | 8.0 | 0.00 | 0.00 | 0.00 | 76 | 1007.0 |
| 20260506021200 | 25 | 254 | 6.4 | 6.4 | 0.00 | 0.00 | 0.00 | 77 | 1006.9 |
| 20260506020657 | 25 | 269 | 3.2 | 3.2 | 0.00 | 0.00 | 0.00 | 77 | 1006.5 |
| 20260506020155 | 25 | 313 | 0.0 | 3.2 | 0.00 | 0.00 | 0.00 | 78 | 1006.3 |
| 20260506015652 | 25 | 222 | 3.2 | 6.4 | 0.00 | 0.00 | 0.00 | 78 | 1006.7 |
| 20260506015149 | 25 | 271 | 8.0 | 9.7 | 0.00 | 0.00 | 0.00 | 79 | 1006.8 |
| 20260506014647 | 25 | 268 | 3.2 | 6.4 | 0.00 | 0.00 | 0.00 | 78 | 1006.7 |
| 20260506014142 | 25 | 260 | 4.8 | 8.0 | 0.00 | 0.00 | 0.00 | 78 | 1006.5 |
| 20260506013640 | 25 | 273 | 3.2 | 4.8 | 0.00 | 0.00 | 0.00 | 77 | 1006.2 |
| 20260506013137 | 25 | 297 | 0.0 | 3.2 | 0.00 | 0.00 | 0.00 | 77 | 1006.1 |
| 20260506012633 | 25 | 184 | 4.8 | 4.8 | 0.00 | 0.00 | 0.00 | 76 | 1005.8 |
| 20260506012130 | 25 | 168 | 4.8 | 8.0 | 0.00 | 0.00 | 0.00 | 76 | 1006.0 |
| 20260506011628 | 25 | 164 | 6.4 | 6.4 | 0.00 | 0.00 | 0.00 | 75 | 1006.0 |
| 20260506011123 | 25 | 169 | 4.8 | 8.0 | 0.00 | 0.00 | 0.00 | 75 | 1006.0 |
| 20260506010623 | 25 | 179 | 0.0 | 6.4 | 0.00 | 0.00 | 0.00 | 75 | 1006.2 |
| 20260506010119 | 25 | 175 | 8.0 | 14.5 | 0.00 | 0.00 | 0.00 | 75 | 1006.3 |
| 20260506005616 | 25 | 162 | 4.8 | 16.1 | 0.00 | 0.00 | 0.00 | 75 | 1006.1 |
| 20260506005112 | 25 | 164 | 3.2 | 14.5 | 0.00 | 0.00 | 0.00 | 75 | 1005.9 |
| 20260506004609 | 25 | 166 | 4.8 | 17.7 | 0.00 | 0.00 | 0.00 | 75 | 1005.7 |
| 20260506004106 | 26 | 162 | 4.8 | 9.7 | 0.00 | 0.00 | 0.00 | 75 | 1005.6 |
| 20260506003602 | 26 | 139 | 4.8 | 11.3 | 0.00 | 0.00 | 0.00 | 75 | 1005.5 |
| 20260506003059 | 26 | 169 | 9.7 | 12.9 | 0.00 | 0.00 | 0.00 | 75 | 1005.7 |
| 20260506002554 | 26 | 165 | 8.0 | 14.5 | 0.00 | 0.00 | 0.00 | 74 | 1005.7 |
| 20260506002051 | 26 | 175 | 8.0 | 9.7 | 0.00 | 0.00 | 0.00 | 74 | 1005.6 |
| 20260506001547 | 26 | 176 | 4.8 | 12.9 | 0.00 | 0.00 | 0.00 | 74 | 1005.7 |
| 20260506001044 | 26 | 145 | 6.4 | 9.7 | 0.00 | 0.00 | 0.00 | 74 | 1005.5 |
| 20260506000542 | 26 | 158 | 4.8 | 11.3 | 0.00 | 0.00 | 0.00 | 73 | 1005.4 |
| 20260506000039 | 26 | 151 | 4.8 | 12.9 | 0.00 | 0.00 | 0.00 | 73 | 1005.3 |
| 20260505235537 | 26 | 217 | 4.8 | 9.7 | 0.00 | 0.00 | 0.00 | 73 | 1005.2 |
| 20260505235034 | 26 | 190 | 8.0 | 12.9 | 0.00 | 0.00 | 0.00 | 72 | 1005.5 |
| 20260505234531 | 26 | 159 | 4.8 | 11.3 | 0.00 | 0.00 | 0.00 | 73 | 1005.3 |
| 20260505234027 | 26 | 175 | 4.8 | 8.0 | 0.00 | 0.00 | 0.00 | 73 | 1005.5 |
| 20260505233525 | 26 | 167 | 9.7 | 16.1 | 0.00 | 0.00 | 0.00 | 72 | 1005.5 |
| 20260505233022 | 26 | 183 | 4.8 | 16.1 | 0.00 | 0.00 | 0.00 | 71 | 1005.3 |
| 20260505232520 | 27 | 193 | 6.4 | 14.5 | 0.00 | 0.00 | 0.00 | 71 | 1005.3 |
| 20260505232017 | 27 | 160 | 9.7 | 12.9 | 0.00 | 0.00 | 0.00 | 70 | 1005.3 |
| 20260505231514 | 27 | 181 | 8.0 | 16.1 | 0.00 | 0.00 | 0.00 | 71 | 1005.3 |
| 20260505231013 | 27 | 162 | 6.4 | 14.5 | 0.00 | 0.00 | 0.00 | 71 | 1005.2 |
| 20260505230510 | 27 | 143 | 11.3 | 19.3 | 0.00 | 0.00 | 0.00 | 70 | 1005.3 |
| 20260505230007 | 27 | 161 | 8.0 | 16.1 | 0.00 | 0.00 | 0.00 | 69 | 1005.3 |
| 20260505225503 | 28 | 165 | 11.3 | 17.7 | 0.00 | 0.00 | 0.00 | 68 | 1005.1 |
| 20260505224959 | 28 | 150 | 12.9 | 27.4 | 0.00 | 0.00 | 0.00 | 68 | 1005.0 |
| 20260505224456 | 28 | 170 | 8.0 | 14.5 | 0.00 | 0.00 | 0.00 | 67 | 1004.8 |
| 20260505223953 | 28 | 171 | 14.5 | 17.7 | 0.00 | 0.00 | 0.00 | 67 | 1005.2 |
| 20260505223450 | 28 | 173 | 9.7 | 12.9 | 0.00 | 0.00 | 0.00 | 68 | 1005.1 |
| 20260505222946 | 28 | 190 | 3.2 | 12.9 | 0.00 | 0.00 | 0.00 | 68 | 1005.2 |
| 20260505222443 | 28 | 169 | 9.7 | 17.7 | 0.00 | 0.00 | 0.00 | 68 | 1005.1 |
| 20260505221938 | 28 | 170 | 8.0 | 17.7 | 0.00 | 0.00 | 0.00 | 68 | 1005.1 |
| 20260505221436 | 28 | 204 | 1.6 | 12.9 | 0.00 | 0.00 | 0.00 | 68 | 1005.2 |
| 20260505220933 | 27 | 150 | 6.4 | 12.9 | 0.00 | 0.00 | 0.00 | 70 | 1005.1 |
| 20260505220430 | 28 | 185 | 6.4 | 11.3 | 0.00 | 0.00 | 0.00 | 69 | 1005.2 |
| 20260505215928 | 28 | 165 | 11.3 | 16.1 | 0.00 | 0.00 | 0.00 | 67 | 1005.3 |
| 20260505215426 | 28 | 171 | 11.3 | 14.5 | 0.00 | 0.00 | 0.00 | 66 | 1005.5 |
| 20260505214923 | 28 | 155 | 8.0 | 16.1 | 0.00 | 0.00 | 0.00 | 67 | 1005.1 |
| 20260505214421 | 28 | 165 | 4.8 | 22.5 | 0.00 | 0.00 | 0.00 | 68 | 1005.2 |
| 20260505213918 | 28 | 162 | 14.5 | 19.3 | 0.00 | 0.00 | 0.00 | 67 | 1005.2 |
| 20260505213416 | 27 | 147 | 6.4 | 12.9 | 0.00 | 0.00 | 0.00 | 68 | 1005.1 |
| 20260505212912 | 27 | 147 | 9.7 | 12.9 | 0.00 | 0.00 | 0.00 | 69 | 1005.4 |
| 20260505212409 | 27 | 161 | 8.0 | 14.5 | 0.00 | 0.00 | 0.00 | 68 | 1005.5 |
| 20260505211905 | 27 | 221 | 6.4 | 14.5 | 0.00 | 0.00 | 0.00 | 68 | 1005.5 |
| 20260505211403 | 27 | 162 | 9.7 | 9.7 | 0.00 | 0.00 | 0.00 | 68 | 1005.5 |
| 20260505210859 | 27 | 179 | 6.4 | 14.5 | 0.00 | 0.00 | 0.00 | 68 | 1005.6 |
| 20260505210356 | 27 | 161 | 4.8 | 16.1 | 0.00 | 0.00 | 0.00 | 67 | 1005.7 |
| 20260505205852 | 29 | 151 | 17.7 | 19.3 | 0.00 | 0.00 | 0.00 | 65 | 1005.6 |
| 20260505205351 | 28 | 12 | 4.8 | 9.7 | 0.00 | 0.00 | 0.00 | 66 | 1005.5 |
| 20260505204847 | 29 | 104 | 3.2 | 16.1 | 0.00 | 0.00 | 0.00 | 65 | 1005.5 |
| 20260505204345 | 29 | 149 | 9.7 | 12.9 | 0.00 | 0.00 | 0.00 | 67 | 1005.5 |
| 20260505203842 | 28 | 198 | 3.2 | 16.1 | 0.00 | 0.00 | 0.00 | 65 | 1005.5 |
| 20260505203338 | 28 | 156 | 6.4 | 9.7 | 0.00 | 0.00 | 0.00 | 66 | 1005.5 |
| 20260505202835 | 28 | 214 | 9.7 | 16.1 | 0.00 | 0.00 | 0.00 | 67 | 1005.6 |
| 20260505202331 | 27 | 162 | 9.7 | 22.5 | 0.00 | 0.00 | 0.00 | 69 | 1005.7 |
| 20260505201828 | 27 | 149 | 14.5 | 27.4 | 0.00 | 0.00 | 0.00 | 69 | 1005.8 |
| 20260505201326 | 27 | 175 | 8.0 | 22.5 | 0.00 | 0.00 | 0.00 | 68 | 1005.8 |
| 20260505200824 | 27 | 139 | 14.5 | 19.3 | 0.00 | 0.00 | 0.00 | 70 | 1005.8 |
| 20260505200320 | 27 | 196 | 6.4 | 16.1 | 0.00 | 0.00 | 0.00 | 70 | 1005.8 |
| 20260505195815 | 27 | 185 | 8.0 | 16.1 | 0.00 | 0.00 | 0.00 | 69 | 1006.0 |
| 20260505195314 | 27 | 199 | 6.4 | 20.9 | 0.00 | 0.00 | 0.00 | 70 | 1005.7 |
| 20260505194810 | 27 | 147 | 19.3 | 22.5 | 0.00 | 0.00 | 0.00 | 68 | 1005.7 |
| 20260505194308 | 27 | 183 | 6.4 | 16.1 | 0.00 | 0.00 | 0.00 | 69 | 1005.8 |
| 20260505193803 | 27 | 206 | 4.8 | 11.3 | 0.00 | 0.00 | 0.00 | 70 | 1006.0 |
| 20260505193301 | 27 | 144 | 8.0 | 8.0 | 0.00 | 0.00 | 0.00 | 70 | 1005.8 |
| 20260505192759 | 26 | 163 | 8.0 | 22.5 | 0.00 | 0.00 | 0.00 | 70 | 1005.9 |
| 20260505192256 | 27 | 149 | 4.8 | 19.3 | 0.00 | 0.00 | 0.00 | 70 | 1006.0 |
| 20260505191754 | 26 | 158 | 11.3 | 16.1 | 0.00 | 0.00 | 0.00 | 70 | 1005.9 |
| 20260505191252 | 26 | 191 | 4.8 | 22.5 | 0.00 | 0.00 | 0.00 | 70 | 1006.2 |
| 20260505190748 | 26 | 188 | 8.0 | 19.3 | 0.00 | 0.00 | 0.00 | 71 | 1006.0 |
| 20260505190243 | 26 | 153 | 9.7 | 19.3 | 0.00 | 0.00 | 0.00 | 70 | 1006.1 |
| 20260505185740 | 26 | 115 | 4.8 | 22.5 | 0.00 | 0.00 | 0.00 | 71 | 1005.9 |
| 20260505185237 | 26 | 155 | 9.7 | 17.7 | 0.00 | 0.00 | 0.00 | 71 | 1005.8 |
| 20260505184732 | 26 | 170 | 9.7 | 22.5 | 0.00 | 0.00 | 0.00 | 71 | 1005.8 |
| 20260505184230 | 26 | 174 | 8.0 | 25.7 | 0.00 | 0.00 | 0.00 | 70 | 1005.9 |
| 20260505183727 | 26 | 163 | 6.4 | 27.4 | 0.00 | 0.00 | 0.00 | 71 | 1005.9 |
| 20260505183224 | 26 | 173 | 6.4 | 19.3 | 0.00 | 0.00 | 0.00 | 71 | 1005.8 |
| 20260505182720 | 26 | 157 | 9.7 | 11.3 | 0.00 | 0.00 | 0.00 | 70 | 1005.8 |
| 20260505182218 | 26 | 248 | 6.4 | 14.5 | 0.00 | 0.00 | 0.00 | 69 | 1005.8 |
| 20260505181714 | 27 | 162 | 19.3 | 24.1 | 0.00 | 0.00 | 0.00 | 68 | 1006.0 |
| 20260505181212 | 27 | 267 | 4.8 | 11.3 | 0.00 | 0.00 | 0.00 | 69 | 1005.8 |
| 20260505180708 | 27 | 172 | 11.3 | 20.9 | 0.00 | 0.00 | 0.00 | 69 | 1005.8 |
| 20260505180205 | 26 | 171 | 8.0 | 29.0 | 0.00 | 0.00 | 0.00 | 70 | 1005.8 |
| 20260505175700 | 26 | 182 | 11.3 | 25.7 | 0.00 | 0.00 | 0.00 | 71 | 1005.7 |
| 20260505175157 | 26 | 157 | 12.9 | 35.4 | 0.00 | 0.00 | 0.00 | 70 | 1005.8 |
| 20260505174654 | 26 | 164 | 11.3 | 22.5 | 0.00 | 0.00 | 0.00 | 70 | 1006.1 |
| 20260505174150 | 26 | 168 | 11.3 | 19.3 | 0.00 | 0.00 | 0.00 | 70 | 1005.9 |
| 20260505173647 | 26 | 172 | 16.1 | 22.5 | 0.00 | 0.00 | 0.00 | 70 | 1006.2 |
| 20260505173144 | 26 | 155 | 16.1 | 22.5 | 0.00 | 0.00 | 0.00 | 70 | 1006.2 |
| 20260505172641 | 25 | 167 | 14.5 | 29.0 | 0.00 | 0.00 | 0.00 | 72 | 1006.2 |
| 20260505172138 | 26 | 167 | 9.7 | 30.6 | 0.00 | 0.00 | 0.00 | 70 | 1006.1 |
| 20260505171637 | 25 | 156 | 11.3 | 20.9 | 0.00 | 0.00 | 0.00 | 73 | 1006.4 |
| 20260505171135 | 25 | 173 | 11.3 | 20.9 | 0.00 | 0.00 | 0.00 | 71 | 1006.7 |
| 20260505170632 | 25 | 147 | 9.7 | 22.5 | 0.00 | 0.00 | 0.00 | 73 | 1006.8 |
| 20260505170128 | 25 | 166 | 16.1 | 24.1 | 0.00 | 0.00 | 0.00 | 72 | 1006.8 |
| 20260505165623 | 25 | 185 | 12.9 | 16.1 | 0.00 | 0.00 | 0.00 | 73 | 1006.7 |
| 20260505165120 | 25 | 168 | 14.5 | 22.5 | 0.00 | 0.00 | 0.00 | 73 | 1006.4 |
| 20260505164615 | 25 | 179 | 12.9 | 25.7 | 0.00 | 0.00 | 0.00 | 73 | 1006.3 |
| 20260505164113 | 25 | 174 | 12.9 | 25.7 | 0.00 | 0.00 | 0.00 | 73 | 1006.4 |
| 20260505163612 | 25 | 158 | 11.3 | 27.4 | 0.00 | 0.00 | 0.00 | 75 | 1006.0 |
| 20260505163109 | 25 | 161 | 14.5 | 29.0 | 0.00 | 0.00 | 0.00 | 73 | 1006.1 |
| 20260505162606 | 25 | 166 | 4.8 | 19.3 | 0.00 | 0.00 | 0.00 | 74 | 1006.0 |
| 20260505162104 | 24 | 220 | 3.2 | 14.5 | 0.00 | 0.00 | 0.00 | 76 | 1005.9 |
| 20260505161600 | 24 | 180 | 11.3 | 27.4 | 0.00 | 0.00 | 0.00 | 75 | 1006.0 |
| 20260505161058 | 24 | 185 | 12.9 | 22.5 | 0.00 | 0.00 | 0.00 | 76 | 1005.9 |
| 20260505160555 | 24 | 165 | 14.5 | 24.1 | 0.00 | 0.00 | 0.00 | 78 | 1005.8 |
| 20260505153032 | 23 | 179 | 12.9 | 24.1 | 0.00 | 0.00 | 0.00 | 77 | 1006.3 |
| 20260505152529 | 23 | 171 | 11.3 | 19.3 | 0.00 | 0.00 | 0.00 | 78 | 1006.1 |
| 20260505152025 | 23 | 165 | 14.5 | 25.7 | 0.00 | 0.00 | 0.00 | 78 | 1006.0 |
| 20260505151520 | 22 | 226 | 8.0 | 20.9 | 0.00 | 0.00 | 0.00 | 79 | 1006.2 |
| 20260505151017 | 23 | 173 | 8.0 | 27.4 | 0.00 | 0.00 | 0.00 | 78 | 1006.0 |
| 20260505150514 | 23 | 177 | 11.3 | 14.5 | 0.00 | 0.00 | 0.00 | 80 | 1005.9 |